Huntsville, AL

11:28 PM CST on December 11, 2017 (GMT -0600)
Huntsville International

Weather History for KHSV - March, 2013

Change the Weather History Date:

Wednesday, March 20, 2013

  Actual Average Record
Temperature  
Mean Temperature 48 °F 55 °F  
Max Temperature 59 °F 66 °F 86 °F (1921)
Min Temperature 37 °F 43 °F 14 °F (1934)
Degree Days  
Heating Degree Days 17 11  
Month to date heating degree days 341 265  
Since 1 July heating degree days 2613 2717  
Cooling Degree Days 0 0  
Month to date cooling degree days 0 0  
Year to date cooling degree days 6 1  
Moisture  
Dew Point 26 °F    
Average Humidity 50    
Maximum Humidity 70    
Minimum Humidity 30    
Precipitation  
Precipitation 0.00 in 0.16 in 5.09 in (1980)
Month to date precipitation 2.65 3.33  
Year to date precipitation 14.53 13.06  
Snow  
Snow 0.00 in - - ()
Month to date snowfall T  
Since 1 July snowfall 0.7  
Snow Depth 0.00 in    
Sea Level Pressure  
Sea Level Pressure 30.10 in    
Wind  
Wind Speed 8 mph (NW)    
Max Wind Speed 22 mph    
Max Gust Speed 33 mph    
Visibility 10 miles    
Events      
T = Trace of Precipitation, MM = Missing Value Source: NWS Daily Summary

Daily Weather History Graph

Daily Weather History Graph

Search for Another Location

Airport or City:

Trip Planner

Search our weather history database for the weather conditions in past years. The results will help you decide how hot, cold, wet, or windy it might be!

Date:

Astronomy

Mar. 20, 2013 Rise Set
Actual Time 6:50 AM CDT 6:58 PM CDT
Civil Twilight 6:25 AM CDT 7:24 PM CDT
Nautical Twilight 5:55 AM CDT 7:53 PM CDT
Astronomical Twilight 5:26 AM CDT 8:23 PM CDT
Moon 12:46 PM CDT (3/20) 2:16 AM CDT (3/20)
Length of Visible Light 12h 58m
Length of Day
12h 08m
First Quarter, 59% of the Moon is Illuminated
Mar 20
First Quarter
Mar 27
Full
Apr 2
Last Quarter
Apr 10
New
Apr 18
First Quarter

Hourly Weather History & Observations

Time (CDT) Temp. Windchill Dew Point Humidity Pressure Visibility Wind Dir Wind Speed Gust Speed Precip Events Conditions
12:53 AM 43.0 °F 38.8 °F 24.1 °F 47% 30.16 in 10.0 mi NNE 6.9 mph - N/A   Clear
1:53 AM 44.1 °F - 21.0 °F 40% 30.15 in 10.0 mi Calm Calm - N/A   Clear
2:53 AM 42.1 °F - 21.9 °F 45% 30.15 in 10.0 mi Calm Calm - N/A   Partly Cloudy
3:53 AM 39.0 °F - 27.0 °F 62% 30.14 in 10.0 mi Calm Calm - N/A   Clear
4:53 AM 39.9 °F - 27.0 °F 60% 30.13 in 10.0 mi Calm Calm - N/A   Overcast
5:53 AM 39.9 °F 36.7 °F 28.0 °F 63% 30.15 in 10.0 mi NNW 4.6 mph - N/A   Overcast
6:53 AM 39.9 °F - 24.1 °F 53% 30.15 in 10.0 mi Calm Calm - N/A   Mostly Cloudy
7:53 AM 39.9 °F 37.8 °F 28.9 °F 65% 30.17 in 10.0 mi NNW 3.5 mph - N/A   Mostly Cloudy
8:53 AM 43.0 °F 40.3 °F 28.0 °F 56% 30.18 in 10.0 mi NW 4.6 mph - N/A   Mostly Cloudy
9:53 AM 48.0 °F - 18.0 °F 30% 30.17 in 10.0 mi NNE 4.6 mph - N/A   Mostly Cloudy
10:53 AM 52.0 °F - 21.0 °F 30% 30.17 in 10.0 mi NW 5.8 mph - N/A   Mostly Cloudy
11:53 AM 53.1 °F - 24.1 °F 32% 30.15 in 10.0 mi Variable 6.9 mph 16.1 mph N/A   Partly Cloudy
12:53 PM 55.9 °F - 27.0 °F 33% 30.12 in 10.0 mi WNW 11.5 mph - N/A   Partly Cloudy
1:53 PM 57.0 °F - 28.0 °F 33% 30.08 in 10.0 mi WNW 13.8 mph 20.7 mph N/A   Scattered Clouds
2:53 PM 55.9 °F - 28.0 °F 34% 30.04 in 10.0 mi WNW 16.1 mph 21.9 mph N/A   Mostly Cloudy
3:53 PM 57.0 °F - 28.0 °F 33% 30.02 in 10.0 mi West 17.3 mph 28.8 mph N/A   Scattered Clouds
4:53 PM 55.9 °F - 27.0 °F 33% 30.01 in 10.0 mi WNW 18.4 mph 27.6 mph N/A   Scattered Clouds
5:53 PM 55.0 °F - 27.0 °F 34% 30.00 in 10.0 mi WNW 20.7 mph 27.6 mph N/A   Mostly Cloudy
6:53 PM 50.0 °F - 27.0 °F 41% 30.01 in 10.0 mi NW 15.0 mph 23.0 mph N/A   Partly Cloudy
7:53 PM 46.9 °F - 27.0 °F 46% 30.03 in 10.0 mi NW 12.7 mph 23.0 mph N/A   Partly Cloudy
8:53 PM 44.1 °F 39.5 °F 28.0 °F 53% 30.04 in 10.0 mi NW 8.1 mph - N/A   Partly Cloudy
9:53 PM 39.9 °F 37.8 °F 30.0 °F 68% 30.04 in 10.0 mi WNW 3.5 mph - N/A   Scattered Clouds
10:53 PM 39.9 °F 34.5 °F 28.0 °F 63% 30.02 in 10.0 mi WNW 8.1 mph - N/A   Partly Cloudy
11:53 PM 39.0 °F 33.4 °F 28.0 °F 65% 30.02 in 10.0 mi North 8.1 mph - N/A   Clear